Location: Austin
(30.3000°N, 97.7500°W)
Time: 07:06:04
(UTC-06:00)

Cosmos 1331 Rocket - Pass Details

Date: 10 January 2026
Orbit: 746 x 772 km, 74.0° (Epoch: 22 January)

Event Time Altitude Azimuth Distance (km) Brightness Sun altitude
Rises 19:01:24 0° 196° (SSW) 3,177 7.7 -15.5°
Reaches altitude 10° 19:03:45 10° 197° (SSW) 2,254 6.9 -16.0°
Maximum altitude 19:08:52 83° 285° (WNW) 755 4.0 -17.0°
Drops below altitude 10° 19:14:00 10° 14° (NNE) 2,263 6.2 -18.1°
Enters shadow 19:14:08 - 14° (NNE) 2,319 6.2 -18.1°
